This demonstration page uses our WeatherBlox Daily Observations layout. Learn more.

Left ArrowRight Arrow

Hourly Observations for September 10, 2020

Temp ( °F °C ) Dew Point ( °F °C ) Humidity (%) Winds ( mph kmh ) Pressure ( in mb ) Visibility ( mi km ) Precip ( " mm )
12:51 am 00:51 Cloudy 63 17.2 52 11.1 68 68 SSE 7 11 29.93 1014 10 16.0934 0 0
1:51 am 01:51 Partly Cloudy 62 16.7 52 11.1 70 70 SE 7 11 29.95 1014 10 16.0934 0 0
2:51 am 02:51 Cloudy 61 16.1 51 10.6 70 70 SSE 6 9 29.96 1015 10 16.0934 0 0
3:51 am 03:51 Clear 59 15 50 10 72 72 S 6 9 29.97 1015 10 16.0934 0 0
4:51 am 04:51 Mostly Clear 58 14.4 49 9.4 72 72 SSE 7 11 29.99 1016 10 16.0934 0 0
5:51 am 05:51 Mostly Clear 57 13.9 49 9.4 74 74 SE 8 13 30.02 1017 10 16.0934 0 0
6:51 am 06:51 Sunny 58 14.4 49 9.4 72 72 SE 7 11 30.05 1018 10 16.0934 0 0
7:51 am 07:51 Sunny 61 16.1 49 9.4 65 65 SE 9 15 30.06 1018 10 16.0934 0 0
8:51 am 08:51 Sunny 64 17.8 49 9.4 58 58 SSE 9 15 30.08 1019 10 16.0934 0 0
9:51 am 09:51 Sunny 68 20 49 9.4 51 51 S 9 15 30.07 1018 10 16.0934 0 0
10:51 am 10:51 Sunny 72 22.2 50 10 46 46 ESE 10 17 30.05 1018 10 16.0934 0 0
11:51 am 11:51 Sunny 74 23.3 50 10 43 43 SE 12 19 30.03 1017 10 16.0934 0 0
12:51 pm 12:51 Sunny 76 24.4 50 10 40 40 SE 12 19 30 1016 10 16.0934 0 0
1:51 pm 13:51 Sunny 79 26.1 51 10.6 38 38 undefined N/A 29.98 1015 10 16.0934 0 0
2:51 pm 14:51 Sunny 81 27.2 51 10.6 35 35 S 3 6 29.95 1014 10 16.0934 0 0
3:51 pm 15:51 Sunny 81 27.2 51 10.6 35 35 Calm 29.93 1014 10 16.0934 0 0
4:51 pm 16:51 Sunny 82 27.8 51 10.6 34 34 VRB 3 6 29.92 1013 10 16.0934 0 0
5:51 pm 17:51 Sunny 81 27.2 51 10.6 35 35 S 7 11 29.92 1013 10 16.0934 0 0
6:51 pm 18:51 Clear 77 25 54 12.2 45 45 S 10 17 29.94 1014 10 16.0934 0 0
7:51 pm 19:51 Clear 75 23.9 54 12.2 48 48 SSE 10 17 29.97 1015 10 16.0934 0 0
8:51 pm 20:51 Clear 72 22.2 54 12.2 53 53 SSE 9 15 29.99 1016 10 16.0934 0 0
9:51 pm 21:51 Clear 70 21.1 54 12.2 57 57 SSE 10 17 30.01 1016 10 16.0934 0 0
10:51 pm 22:51 Clear 67 19.4 53 11.7 61 61 SSE 8 13 30.03 1017 10 16.0934 0 0
11:51 pm 23:51 Clear 66 18.9 53 11.7 63 63 SE 7 11 30.04 1017 10 16.0934 0 0

Powered by AerisWeather